Bilingurr, Australia

8:18 AM AWST on August 17, 2017 (GMT +0800)
Bilingurr

Weather History for 94203 - December, 2013

Change the Weather History Date:

Sunday, December 15, 2013

  Actual Average Record
Temperature  
Mean Temperature 84 °F -  
Max Temperature 91 °F 92 °F - ()
Min Temperature 76 °F 80 °F - ()
Cooling Degree Days 18    
Growing Degree Days 34 (Base 50)    
Moisture  
Dew Point 71 °F    
Average Humidity 65    
Maximum Humidity 78    
Minimum Humidity 47    
Precipitation  
Precipitation 0.00 in 0.17 in - ()
Sea Level Pressure  
Sea Level Pressure 29.78 in    
Wind  
Wind Speed 10 mph ()    
Max Wind Speed 16 mph    
Max Gust Speed -    
Visibility 6.2 miles    
Events      
T = Trace of Precipitation, MM = Missing Value Source: Averaged Metar Reports

Daily Weather History Graph

Daily Weather History Graph

Search for Another Location

Airport or City:

Trip Planner

Search our weather history database for the weather conditions in past years. The results will help you decide how hot, cold, wet, or windy it might be!

Date:

Astronomy

Dec. 15, 2013 Rise Set
Actual Time 5:10 AM AWST 6:22 PM AWST
Civil Twilight 4:46 AM AWST 6:46 PM AWST
Nautical Twilight 4:17 AM AWST 7:15 PM AWST
Astronomical Twilight 3:47 AM AWST 7:44 PM AWST
Moon 4:37 PM AWST (12/15) 3:22 AM AWST (12/15)
Length of Visible Light 14h 00m
Length of Day
13h 12m
Waxing Gibbous, 95% of the Moon is Illuminated
Dec 15
Waxing Gibbous
Dec 17
Full
Dec 25
Last Quarter
Jan 1
New
Jan 8
First Quarter

Hourly Weather History & Observations

Time (AWST) Temp. Heat Index Dew Point Humidity Pressure Visibility Wind Dir Wind Speed Gust Speed Precip Events Conditions
12:00 AM 80 °F - 70 °F 65% 29.81 in - ESE 16.1 mph - -  
12:00 AM 80.6 °F 83.9 °F 69.8 °F 70% 29.80 in 6.2 mi ESE 16.1 mph - N/A   Unknown
12:30 AM 80.6 °F 83.9 °F 69.8 °F 70% 29.80 in 6.2 mi ESE 16.1 mph - N/A   Unknown
1:00 AM 78.8 °F - 69.8 °F 74% 29.80 in 6.2 mi East 12.7 mph - N/A   Unknown
1:30 AM 78.8 °F - 69.8 °F 74% 29.80 in 6.2 mi SE 12.7 mph - N/A   Unknown
2:00 AM 78 °F - 69 °F 68% 29.81 in - ESE 12.7 mph - -  
2:00 AM 78.8 °F - 69.8 °F 74% 29.80 in 6.2 mi ESE 12.7 mph - N/A   Unknown
2:30 AM 77.0 °F - 68.0 °F 74% 29.80 in 6.2 mi East 12.7 mph - N/A   Unknown
3:00 AM 77 °F - 69 °F 70% 29.80 in - East 8.1 mph - -  
3:00 AM 77.0 °F - 69.8 °F 78% 29.80 in 6.2 mi East 8.1 mph - N/A   Unknown
3:30 AM 77.0 °F - 69.8 °F 78% 29.77 in 6.2 mi East 9.2 mph - N/A   Unknown
4:00 AM 77.0 °F - 69.8 °F 78% 29.77 in 6.2 mi East 8.1 mph - N/A   Unknown
4:30 AM 77.0 °F - 68.0 °F 74% 29.80 in 6.2 mi East 10.4 mph - N/A   Unknown
5:00 AM 77 °F - 68 °F 68% 29.81 in - East 12.7 mph - -  
5:00 AM 77.0 °F - 68.0 °F 74% 29.80 in 6.2 mi East 12.7 mph - N/A   Unknown
5:30 AM 77.0 °F - 68.0 °F 74% 29.80 in 6.2 mi East 10.4 mph - N/A   Unknown
6:00 AM 77 °F - 68 °F 68% 29.81 in 25 mi East 10.4 mph - -   Partly Cloudy
6:00 AM 77.0 °F - 68.0 °F 74% 29.80 in - East 10.4 mph - N/A   Clear
6:30 AM 77.0 °F - 68.0 °F 74% 29.80 in - East 10.4 mph - N/A   Clear
7:00 AM 78.8 °F - 68.0 °F 69% 29.80 in - ENE 10.4 mph - N/A   Clear
7:30 AM 80.6 °F 83.2 °F 68.0 °F 65% 29.83 in - ENE 12.7 mph - N/A   Clear
8:00 AM 82 °F - 68 °F 54% 29.82 in - ENE 9.2 mph - -  
8:00 AM 82.4 °F 85.4 °F 68.0 °F 62% 29.80 in - ENE 9.2 mph - N/A   Clear
8:30 AM 82.4 °F 85.4 °F 68.0 °F 62% 29.80 in - NE 8.1 mph - N/A   Clear
9:00 AM 83 °F - 69 °F 53% 29.82 in 25 mi ENE 5.8 mph - -   Scattered Clouds
9:00 AM 84.2 °F 87.3 °F 68.0 °F 58% 29.80 in - ENE 5.8 mph - N/A   Clear
9:30 AM 86.0 °F 90.4 °F 69.8 °F 58% 29.80 in - NE 6.9 mph - N/A   Clear
10:00 AM 87.8 °F 92.6 °F 69.8 °F 55% 29.80 in 6.2 mi ESE 3.5 mph - N/A   Mostly Cloudy
10:30 AM 87.8 °F 93.8 °F 71.6 °F 58% 29.80 in 6.2 mi SSE 5.8 mph - N/A   Unknown
11:00 AM 88 °F - 71 °F 48% 29.79 in - South 5.8 mph - -  
11:00 AM 87.8 °F 93.8 °F 71.6 °F 58% 29.77 in 6.2 mi South 5.8 mph - N/A   Mostly Cloudy
11:30 AM 87.8 °F 93.8 °F 71.6 °F 58% 29.77 in 6.2 mi South 5.8 mph - N/A   Scattered Clouds
12:00 PM 89 °F - 71 °F 47% 29.77 in 25 mi West 12.7 mph - -   Scattered Clouds
12:00 PM 89.6 °F 96.2 °F 71.6 °F 55% 29.77 in 6.2 mi West 12.7 mph - N/A   Partly Cloudy
12:30 PM 89.6 °F 96.2 °F 71.6 °F 55% 29.74 in 6.2 mi West 10.4 mph - N/A   Partly Cloudy
1:00 PM 89.6 °F 96.2 °F 71.6 °F 55% 29.74 in 6.2 mi West 11.5 mph - N/A   Partly Cloudy
1:30 PM 87.8 °F 93.8 °F 71.6 °F 58% 29.74 in 6.2 mi West 13.8 mph - N/A   Partly Cloudy
2:00 PM 88 °F - 72 °F 51% 29.74 in - West 12.7 mph - -  
2:00 PM 87.8 °F 93.8 °F 71.6 °F 58% 29.74 in 6.2 mi West 12.7 mph - N/A   Partly Cloudy
2:30 PM 87.8 °F 95.6 °F 73.4 °F 62% 29.71 in 6.2 mi West 12.7 mph - N/A   Partly Cloudy
3:00 PM 88 °F - 73 °F 52% 29.73 in 25 mi WNW 12.7 mph - -   Partly Cloudy
3:00 PM 87.8 °F 95.6 °F 73.4 °F 62% 29.71 in 6.2 mi WNW 12.7 mph - N/A   Partly Cloudy
3:30 PM 87.8 °F 95.6 °F 73.4 °F 62% 29.71 in 6.2 mi West 12.7 mph - N/A   Partly Cloudy
4:00 PM 87.8 °F 95.6 °F 73.4 °F 62% 29.71 in 6.2 mi West 12.7 mph - N/A   Partly Cloudy
4:30 PM 87.8 °F 95.6 °F 73.4 °F 62% 29.71 in 6.2 mi West 13.8 mph - N/A   Partly Cloudy
5:00 PM 87 °F - 73 °F 56% 29.72 in - West 13.8 mph - -  
5:00 PM 86.0 °F 93.4 °F 73.4 °F 66% 29.71 in 6.2 mi West 13.8 mph - N/A   Partly Cloudy
5:30 PM 86.0 °F 93.4 °F 73.4 °F 66% 29.71 in 6.2 mi West 12.7 mph - N/A   Partly Cloudy
6:00 PM 85 °F - 74 °F 64% 29.73 in 25 mi West 10.4 mph - -   Partly Cloudy
6:00 PM 86.0 °F 95.1 °F 75.2 °F 70% 29.71 in 6.2 mi West 10.4 mph - N/A   Partly Cloudy
6:30 PM 84.2 °F 92.3 °F 75.2 °F 74% 29.74 in 6.2 mi West 9.2 mph - N/A   Unknown
7:00 PM 84.2 °F 92.3 °F 75.2 °F 74% 29.74 in 6.2 mi West 8.1 mph - N/A   Partly Cloudy
7:30 PM 84.2 °F 92.3 °F 75.2 °F 74% 29.77 in 6.2 mi WNW 6.9 mph - N/A   Partly Cloudy
8:00 PM 84 °F - 75 °F 67% 29.78 in - West 6.9 mph - -  
8:00 PM 84.2 °F 92.3 °F 75.2 °F 74% 29.77 in - West 6.9 mph - N/A   Clear
8:30 PM 84.2 °F 92.3 °F 75.2 °F 74% 29.77 in - SW 8.1 mph - N/A   Clear
9:00 PM 84 °F - 74 °F 66% 29.80 in 25 mi SW 8.1 mph - -   Partly Cloudy
9:00 PM 84.2 °F 92.3 °F 75.2 °F 74% 29.80 in 6.2 mi SW 8.1 mph - N/A   Partly Cloudy
9:30 PM 84.2 °F 90.9 °F 73.4 °F 70% 29.80 in 6.2 mi SSW 9.2 mph - N/A   Unknown
10:00 PM 84.2 °F 90.9 °F 73.4 °F 70% 29.80 in 6.2 mi SSW 9.2 mph - N/A   Unknown
10:30 PM 84.2 °F 89.6 °F 71.6 °F 66% 29.80 in 6.2 mi South 6.9 mph - N/A   Unknown
11:00 PM 84 °F - 72 °F 60% 29.80 in - South 4.6 mph - -  
11:00 PM 84.2 °F 89.6 °F 71.6 °F 66% 29.80 in 6.2 mi South 4.6 mph - N/A   Unknown
11:30 PM 82.4 °F 87.2 °F 71.6 °F 70% 29.80 in 6.2 mi Calm Calm - N/A   Unknown